Total_Precipitation_Accumulation
0.10 0.10 0.08 0.04 0.03 0.04 0.03 0.03 0.02 0.01 0.01 0.01 0.00 0.00 0.00 0.00 0.00 0.00 0.00 0.00 0.00 0.00 0.01 0.01 0.04 0.09 0.08 0.06 0.02 0.00 0.00 0.00 0.00 0.01 0.01 0.03 0.04 0.02 0.02 0.00 0.01 0.00 0.00 0.00 0.00 0.00 0.00
0.08 0.09 0.08 0.08 0.06 0.04 0.04 0.04 0.03 0.02 0.02 0.02 0.00 0.00 0.00 0.00 0.00 0.00 0.00 0.00 0.00 0.00 0.03 0.07 0.10 0.11 0.03 0.03 0.00 0.00 0.00 0.00 0.00 0.00 0.01 0.03 0.04 0.01 0.01 0.00 0.02 0.00 0.00 0.00 0.00 0.00 0.00
0.08 0.07 0.07 0.08 0.09 0.08 0.04 0.03 0.03 0.02 0.02 0.02 0.02 0.02 0.01 0.01 0.00 0.00 0.00 0.00 0.00 0.00 0.04 0.11 0.19 0.11 0.04 0.00 0.00 0.00 0.00 0.00 0.00 0.00 0.00 0.01 0.03 0.12 0.07 0.05 0.00 0.01 0.01 0.00 0.00 0.00 0.00
0.06 0.07 0.07 0.09 0.10 0.11 0.08 0.03 0.02 0.01 0.01 0.02 0.02 0.04 0.03 0.01 0.02 0.01 0.01 0.02 0.02 0.02 0.06 0.12 0.13 0.13 0.05 0.00 0.00 0.00 0.00 0.00 0.00 0.00 0.00 0.01 0.13 0.11 0.09 0.07 0.04 0.04 0.06 0.02 0.00 0.00 0.00
0.06 0.09 0.10 0.11 0.10 0.08 0.07 0.06 0.04 0.02 0.02 0.03 0.02 0.03 0.03 0.02 0.03 0.04 0.05 0.06 0.06 0.12 0.17 0.10 0.05 0.10 0.03 0.00 0.00 0.00 0.00 0.00 0.00 0.00 0.00 0.03 0.17 0.19 0.11 0.14 0.15 0.11 0.04 0.01 0.00 0.00 0.00
0.07 0.08 0.07 0.06 0.05 0.05 0.06 0.08 0.08 0.05 0.04 0.04 0.03 0.03 0.03 0.03 0.03 0.05 0.12 0.17 0.18 0.19 0.14 0.07 0.04 0.06 0.00 0.00 0.00 0.00 0.00 0.00 0.04 0.08 0.06 0.08 0.20 0.23 0.16 0.19 0.14 0.04 0.02 0.01 0.00 0.00 0.00
0.07 0.07 0.06 0.05 0.05 0.08 0.10 0.10 0.10 0.08 0.06 0.05 0.06 0.08 0.06 0.04 0.06 0.08 0.22 0.56 0.25 0.14 0.10 0.01 0.01 0.00 0.00 0.00 0.00 0.00 0.00 0.00 0.03 0.14 0.09 0.10 0.21 0.19 0.10 0.04 0.03 0.02 0.05 0.02 0.00 0.00 0.01
0.07 0.08 0.06 0.07 0.10 0.11 0.10 0.11 0.09 0.08 0.06 0.05 0.05 0.05 0.08 0.09 0.11 0.19 0.38 0.34 0.08 0.05 0.13 0.04 0.01 0.00 0.00 0.02 0.03 0.01 0.00 0.01 0.05 0.13 0.10 0.23 0.19 0.04 0.09 0.06 0.05 0.06 0.06 0.03 0.01 0.02 0.04
0.10 0.11 0.12 0.19 0.15 0.13 0.13 0.13 0.14 0.16 0.11 0.08 0.07 0.07 0.08 0.10 0.15 0.25 0.32 0.20 0.14 0.15 0.49 0.24 0.04 0.03 0.01 0.02 0.03 0.07 0.00 0.03 0.05 0.12 0.18 0.22 0.18 0.05 0.14 0.13 0.09 0.07 0.07 0.04 0.03 0.05 0.04
0.11 0.16 0.22 0.20 0.19 0.20 0.20 0.19 0.17 0.17 0.18 0.14 0.11 0.11 0.08 0.14 0.22 0.21 0.36 0.35 0.36 0.49 1.15 0.24 0.04 0.07 0.08 0.17 0.11 0.02 0.00 0.05 0.09 0.12 0.16 0.21 0.19 0.18 0.17 0.25 0.09 0.06 0.03 0.04 0.07 0.15 0.05
0.26 0.33 0.24 0.16 0.20 0.25 0.22 0.21 0.24 0.22 0.22 0.18 0.14 0.11 0.06 0.16 0.20 0.23 0.23 0.44 0.52 0.86 0.89 0.04 0.02 0.02 0.02 0.14 0.12 0.03 0.01 0.15 0.17 0.14 0.37 0.42 0.24 0.31 0.19 0.28 0.09 0.09 0.02 0.04 0.07 0.21 0.31
0.39 0.26 0.23 0.27 0.28 0.21 0.22 0.27 0.30 0.36 0.36 0.27 0.18 0.10 0.06 0.13 0.18 0.27 0.35 0.50 0.62 0.81 0.37 0.06 0.07 0.05 0.07 0.07 0.15 0.17 0.05 0.13 0.31 0.44 0.40 0.26 0.18 0.30 0.19 0.17 0.16 0.09 0.12 0.12 0.18 0.27 0.43
0.26 0.27 0.31 0.37 0.37 0.32 0.27 0.28 0.31 0.42 0.43 0.34 0.33 0.24 0.12 0.05 0.19 0.28 0.47 0.52 0.67 0.39 0.16 0.27 0.17 0.18 0.10 0.05 0.13 0.18 0.15 0.20 0.83 0.70 0.68 0.78 0.55 0.48 0.23 0.35 0.50 0.36 0.42 0.62 0.56 0.59 0.31
0.30 0.31 0.33 0.42 0.43 0.41 0.46 0.40 0.35 0.30 0.37 0.40 0.38 0.38 0.27 0.06 0.21 0.30 0.52 0.52 0.40 0.13 0.21 0.24 0.16 0.21 0.29 0.10 0.17 0.13 0.29 0.15 0.46 0.31 0.43 0.68 0.62 0.49 0.29 0.46 0.77 0.58 0.46 0.58 0.32 0.29 0.13
0.34 0.39 0.43 0.43 0.42 0.46 0.56 0.48 0.31 0.30 0.27 0.45 0.54 0.57 0.47 0.15 0.31 0.41 0.67 0.59 0.20 0.17 0.23 0.21 0.23 0.24 0.27 0.12 0.17 0.15 0.17 0.13 0.17 0.16 0.38 0.42 0.51 0.31 0.18 0.22 0.47 0.56 0.52 0.37 0.32 0.08 0.16
0.37 0.39 0.51 0.51 0.57 0.76 0.70 0.47 0.39 0.44 0.38 0.48 0.84 0.69 0.39 0.14 0.41 0.59 0.86 0.53 0.31 0.39 0.32 0.17 0.12 0.05 0.04 0.08 0.19 0.11 0.08 0.05 0.09 0.03 0.19 0.33 0.56 0.53 0.49 0.39 0.55 0.49 0.31 0.40 0.63 0.26 0.11
0.44 0.38 0.38 0.61 0.75 0.74 0.61 0.55 0.53 0.60 0.56 0.60 0.95 0.73 0.31 0.32 0.78 0.93 0.69 0.46 0.30 0.26 0.22 0.18 0.06 0.05 0.02 0.02 0.19 0.05 0.04 0.03 0.05 0.02 0.13 0.44 0.59 0.62 0.86 0.74 0.53 0.53 0.49 0.36 0.43 0.22 0.10
0.40 0.41 0.42 0.53 0.68 0.71 0.71 0.60 0.63 0.67 0.86 0.78 0.81 0.60 0.29 0.62 0.89 0.61 0.40 0.60 0.37 0.18 0.17 0.17 0.07 0.02 0.01 0.01 0.12 0.05 0.03 0.02 0.01 0.03 0.16 0.38 0.51 0.66 0.53 0.20 0.15 0.22 0.24 0.11 0.44 0.30 0.11
0.33 0.35 0.43 0.50 0.63 0.72 0.70 0.61 0.57 0.54 0.84 0.70 0.61 0.49 0.80 0.41 0.52 0.33 0.36 0.62 0.39 0.15 0.17 0.20 0.05 0.01 0.00 0.00 0.02 0.01 0.02 0.00 0.00 0.01 0.15 0.28 0.59 0.60 0.56 0.32 0.31 0.35 0.26 0.12 0.25 0.55 0.22
0.32 0.38 0.48 0.45 0.47 0.56 0.64 0.52 0.54 0.50 0.66 0.54 0.48 0.37 0.89 0.88 0.19 0.27 0.53 0.66 0.53 0.20 0.16 0.21 0.06 0.01 0.00 0.00 0.00 0.00 0.04 0.00 0.00 0.01 0.17 0.55 0.42 0.57 0.48 0.24 0.15 0.13 0.16 0.20 0.30 0.54 0.23
0.33 0.39 0.38 0.38 0.37 0.49 0.57 0.62 0.85 0.79 0.85 0.55 0.32 0.13 0.14 0.23 0.08 0.05 0.51 0.73 0.78 0.64 0.42 0.24 0.08 0.01 0.00 0.00 0.00 0.00 0.01 0.00 0.00 0.01 0.17 0.47 0.65 0.88 0.39 0.09 0.10 0.03 0.10 0.13 0.29 0.34 0.23
0.30 0.31 0.29 0.33 0.37 0.46 0.50 0.73 0.88 1.00 0.88 0.55 0.18 0.05 0.05 0.02 0.01 0.01 0.31 0.76 0.86 0.76 0.58 0.29 0.10 0.01 0.00 0.00 0.00 0.00 0.00 0.00 0.00 0.00 0.02 0.18 0.48 0.56 0.21 0.02 0.04 0.03 0.07 0.09 0.13 0.27 0.33
0.25 0.31 0.31 0.27 0.33 0.37 0.33 0.49 0.72 1.01 1.12 0.50 0.07 0.02 0.03 0.05 0.04 0.02 0.07 0.39 0.62 0.63 0.48 0.27 0.14 0.08 0.01 0.00 0.00 0.00 0.00 0.00 0.00 0.00 0.02 0.07 0.17 0.28 0.15 0.10 0.08 0.13 0.11 0.09 0.11 0.15 0.23
0.23 0.28 0.35 0.31 0.27 0.32 0.29 0.45 0.71 0.96 0.91 0.34 0.01 0.02 0.06 0.03 0.04 0.02 0.01 0.21 0.39 0.29 0.38 0.23 0.18 0.09 0.02 0.03 0.01 0.03 0.03 0.00 0.01 0.02 0.01 0.02 0.04 0.05 0.03 0.04 0.02 0.02 0.01 0.01 0.04 0.03 0.04
0.25 0.27 0.33 0.35 0.25 0.31 0.36 0.41 0.58 0.44 0.33 0.19 0.01 0.03 0.07 0.04 0.01 0.01 0.02 0.20 0.25 0.17 0.35 0.32 0.19 0.04 0.02 0.03 0.08 0.09 0.15 0.12 0.02 0.02 0.00 0.01 0.08 0.08 0.00 0.01 0.00 0.00 0.00 0.00 0.00 0.00 0.00
0.22 0.26 0.28 0.33 0.32 0.28 0.32 0.25 0.32 0.36 0.32 0.19 0.05 0.03 0.06 0.04 0.02 0.00 0.00 0.10 0.27 0.16 0.22 0.26 0.16 0.07 0.13 0.05 0.13 0.07 0.11 0.11 0.03 0.03 0.03 0.02 0.07 0.16 0.04 0.00 0.00 0.00 0.00 0.00 0.00 0.00 0.00
0.21 0.22 0.26 0.29 0.28 0.23 0.25 0.29 0.31 0.31 0.24 0.19 0.05 0.02 0.13 0.07 0.01 0.00 0.00 0.04 0.27 0.19 0.19 0.26 0.19 0.11 0.19 0.18 0.08 0.08 0.03 0.00 0.00 0.00 0.02 0.06 0.08 0.13 0.08 0.02 0.00 0.00 0.00 0.00 0.00 0.00 0.00
0.20 0.20 0.28 0.31 0.26 0.23 0.22 0.26 0.28 0.26 0.24 0.20 0.05 0.02 0.07 0.05 0.00 0.00 0.00 0.01 0.17 0.31 0.22 0.26 0.30 0.22 0.24 0.27 0.12 0.06 0.02 0.00 0.00 0.00 0.00 0.01 0.02 0.02 0.06 0.04 0.00 0.00 0.00 0.00 0.00 0.00 0.00
0.20 0.22 0.25 0.28 0.26 0.23 0.21 0.24 0.25 0.20 0.21 0.21 0.02 0.02 0.09 0.06 0.01 0.00 0.00 0.00 0.07 0.23 0.26 0.19 0.22 0.08 0.08 0.13 0.05 0.03 0.04 0.00 0.00 0.00 0.00 0.00 0.00 0.00 0.00 0.00 0.00 0.00 0.00 0.00 0.00 0.00 0.00